Regional Weather Roundup
Issued by NWS

Home | Current Version | Previous Version | Graphics & Text | Print | Product List | Glossary On
Versions: 1 2 3 4 5 6 7 8 9 10 11 12 13 14 15 16 17 18 19 20 21 22 23 24 25 26 27 28 29 30 31 32 33 34 35 36 37 38 39 40 41 42 43 44 45 46 47 48 49 50
000
ASUS43 KBIS 180059
RWRND

NORTH DAKOTA REGIONAL WEATHER ROUNDUP
NATIONAL WEATHER SERVICE BISMARCK ND
700 PM CST WED DEC 17 2014

NOTE: "FAIR" INDICATES FEW OR NO CLOUDS BELOW 12,000 FEET WITH NO
SIGNIFICANT WEATHER AND/OR OBSTRUCTIONS TO VISIBILITY.


NDZ001>003-009>011-017-180200-
NORTHWEST NORTH DAKOTA

CITY           SKY/WX    TMP DP  RH WIND       PRES   REMARKS
WILLISTON      CLOUDY    20  13  74 SE9       30.09F WCI   9
MINOT          MOCLDY     9   5  84 SE6       30.17F WCI  -1
$$

NDZ018>021-031>035-040>046-180200-
SOUTHWEST NORTH DAKOTA

CITY           SKY/WX    TMP DP  RH WIND       PRES   REMARKS
BISMARCK       PTCLDY    13  10  88 SE5       30.20S WCI   5
GARRISON         N/A     10   7  87 SE8       30.16S WCI  -2
HETTINGER ARPT CLOUDY    17  14  88 SE10      30.07F WCI   5
$$

NDZ004>008-012>016-024-026-027-054-180200-
NORTHEAST NORTH DAKOTA

CITY           SKY/WX    TMP DP  RH WIND       PRES   REMARKS
GRAND FORKS    PTCLDY    10   7  87 CALM      30.32S
DEVILS LAKE    PTCLDY    10   3  72 SE6       30.23S WCI   1
$$

NDZ022-023-025-028>030-036>039-047>053-180200-
SOUTHEAST NORTH DAKOTA

CITY           SKY/WX    TMP DP  RH WIND       PRES   REMARKS
FARGO          CLEAR     12   8  84 E5        30.30F WCI   4
$$



USA.gov is the U.S. government's official web portal to all federal, state and local government web resources and services.